Total_Precipitation_Accumulation
0.02 0.06 0.11 0.11 0.08 0.07 0.06 0.04 0.04 0.05 0.09 0.16 0.24 0.25 0.20 0.18 0.16 0.12 0.10 0.09 0.10 0.12 0.14 0.17 0.19 0.21 0.26 0.36 0.43 0.55 0.67 0.70 0.66 0.63 0.66 0.67 0.65 0.63 0.64 0.66 0.66 0.69 0.63 0.57
0.04 0.06 0.08 0.07 0.06 0.06 0.06 0.05 0.05 0.06 0.09 0.14 0.22 0.22 0.15 0.14 0.13 0.14 0.18 0.17 0.15 0.18 0.22 0.25 0.28 0.34 0.44 0.54 0.67 0.86 1.05 1.03 0.99 0.93 0.91 0.90 0.86 0.84 0.88 0.88 0.87 0.85 0.78 0.74
0.09 0.09 0.10 0.07 0.07 0.07 0.07 0.07 0.07 0.10 0.13 0.17 0.21 0.19 0.15 0.12 0.11 0.14 0.19 0.20 0.20 0.24 0.29 0.35 0.40 0.44 0.54 0.66 0.79 0.90 0.96 0.92 0.94 0.96 0.98 0.99 0.98 0.98 0.95 0.95 0.94 0.95 0.95 0.91
0.16 0.18 0.19 0.10 0.12 0.13 0.14 0.16 0.18 0.16 0.20 0.24 0.26 0.24 0.23 0.19 0.18 0.18 0.19 0.21 0.22 0.25 0.27 0.32 0.40 0.47 0.59 0.64 0.67 0.76 0.78 0.74 0.71 0.71 0.72 0.72 0.76 0.81 0.83 0.90 0.92 0.91 0.85 0.75
0.28 0.24 0.25 0.24 0.22 0.21 0.25 0.31 0.26 0.29 0.35 0.36 0.33 0.32 0.30 0.26 0.27 0.27 0.26 0.23 0.22 0.22 0.25 0.29 0.34 0.38 0.42 0.45 0.48 0.55 0.59 0.59 0.54 0.54 0.53 0.53 0.58 0.65 0.74 0.77 0.73 0.66 0.60 0.60
0.39 0.39 0.37 0.36 0.40 0.30 0.30 0.49 0.53 0.50 0.47 0.42 0.42 0.49 0.43 0.30 0.23 0.23 0.24 0.24 0.23 0.22 0.22 0.23 0.26 0.30 0.31 0.33 0.37 0.43 0.48 0.50 0.48 0.47 0.47 0.47 0.49 0.51 0.52 0.55 0.54 0.51 0.47 0.49
0.41 0.45 0.47 0.43 0.38 0.35 0.53 0.70 0.74 0.77 0.73 0.60 0.58 0.56 0.46 0.33 0.25 0.21 0.21 0.20 0.19 0.19 0.20 0.22 0.23 0.25 0.29 0.30 0.32 0.33 0.35 0.38 0.39 0.38 0.39 0.39 0.40 0.40 0.43 0.45 0.44 0.42 0.39 0.41
0.57 0.73 0.83 0.64 0.55 0.67 0.75 0.56 0.56 0.69 0.84 0.83 0.73 0.56 0.43 0.32 0.24 0.19 0.16 0.16 0.17 0.17 0.17 0.18 0.21 0.23 0.26 0.27 0.26 0.26 0.28 0.31 0.32 0.32 0.34 0.34 0.38 0.38 0.36 0.35 0.33 0.32 0.34 0.35
0.81 0.91 0.82 0.70 0.69 0.64 0.72 0.80 0.80 0.86 0.97 0.93 0.79 0.56 0.38 0.27 0.20 0.15 0.13 0.13 0.13 0.14 0.16 0.18 0.21 0.22 0.26 0.26 0.25 0.27 0.29 0.29 0.29 0.29 0.32 0.34 0.38 0.38 0.38 0.38 0.37 0.34 0.31 0.28
0.83 0.91 0.77 0.66 0.68 0.68 0.73 0.91 0.97 0.89 0.84 0.76 0.65 0.51 0.38 0.26 0.18 0.14 0.11 0.11 0.12 0.13 0.15 0.16 0.18 0.20 0.25 0.26 0.26 0.27 0.27 0.25 0.25 0.24 0.24 0.27 0.34 0.37 0.38 0.38 0.37 0.33 0.32 0.31
0.86 0.98 0.93 0.86 0.79 0.74 0.78 0.79 0.88 0.80 0.77 0.69 0.57 0.48 0.41 0.32 0.25 0.19 0.15 0.13 0.13 0.13 0.14 0.15 0.15 0.16 0.18 0.23 0.27 0.28 0.28 0.25 0.23 0.20 0.20 0.23 0.27 0.29 0.26 0.28 0.25 0.23 0.24 0.26
0.99 1.04 1.15 1.07 0.89 0.78 0.82 0.78 0.76 0.72 0.72 0.68 0.56 0.49 0.44 0.42 0.37 0.29 0.24 0.19 0.17 0.16 0.15 0.15 0.15 0.15 0.15 0.16 0.22 0.30 0.31 0.27 0.23 0.20 0.21 0.22 0.24 0.25 0.24 0.20 0.18 0.19 0.20 0.18
0.72 0.89 1.04 0.95 0.78 0.73 0.70 0.71 0.72 0.70 0.67 0.62 0.57 0.50 0.45 0.43 0.42 0.37 0.33 0.29 0.23 0.19 0.17 0.14 0.12 0.13 0.13 0.14 0.20 0.26 0.29 0.26 0.21 0.18 0.18 0.20 0.22 0.27 0.33 0.31 0.24 0.22 0.28 0.24
0.61 0.75 0.92 0.87 0.84 0.78 0.60 0.56 0.59 0.60 0.62 0.57 0.54 0.46 0.37 0.34 0.32 0.31 0.28 0.22 0.17 0.14 0.12 0.10 0.08 0.09 0.10 0.12 0.19 0.24 0.26 0.24 0.20 0.17 0.19 0.20 0.22 0.26 0.33 0.41 0.47 0.41 0.37 0.35
0.61 0.64 0.66 0.63 0.67 0.71 0.60 0.49 0.46 0.48 0.47 0.47 0.46 0.38 0.29 0.27 0.26 0.26 0.23 0.17 0.13 0.11 0.10 0.08 0.08 0.09 0.08 0.09 0.14 0.18 0.20 0.17 0.14 0.15 0.18 0.21 0.24 0.27 0.31 0.36 0.43 0.44 0.40 0.39
0.57 0.49 0.46 0.50 0.52 0.53 0.52 0.47 0.42 0.42 0.38 0.36 0.36 0.34 0.28 0.23 0.20 0.19 0.17 0.17 0.16 0.15 0.11 0.09 0.08 0.08 0.08 0.08 0.12 0.15 0.16 0.15 0.12 0.11 0.14 0.19 0.24 0.27 0.29 0.36 0.41 0.43 0.41 0.41
0.47 0.42 0.39 0.38 0.36 0.38 0.40 0.38 0.35 0.31 0.28 0.27 0.26 0.24 0.22 0.19 0.18 0.17 0.16 0.14 0.12 0.11 0.10 0.09 0.07 0.07 0.08 0.09 0.14 0.19 0.17 0.14 0.14 0.13 0.15 0.20 0.25 0.29 0.30 0.37 0.44 0.44 0.39 0.32
0.39 0.33 0.33 0.32 0.27 0.28 0.29 0.25 0.21 0.19 0.19 0.16 0.14 0.13 0.13 0.14 0.14 0.14 0.13 0.11 0.09 0.08 0.07 0.05 0.05 0.06 0.08 0.10 0.13 0.19 0.20 0.17 0.16 0.16 0.18 0.19 0.20 0.26 0.29 0.31 0.33 0.37 0.40 0.34
0.33 0.30 0.29 0.27 0.24 0.22 0.19 0.16 0.13 0.11 0.11 0.09 0.10 0.10 0.11 0.10 0.09 0.07 0.06 0.08 0.10 0.11 0.08 0.04 0.05 0.05 0.08 0.11 0.12 0.16 0.20 0.19 0.17 0.18 0.19 0.18 0.21 0.26 0.27 0.29 0.34 0.40 0.44 0.48
0.27 0.23 0.22 0.21 0.16 0.14 0.12 0.10 0.08 0.08 0.08 0.08 0.08 0.08 0.07 0.06 0.05 0.05 0.05 0.08 0.11 0.12 0.07 0.04 0.03 0.05 0.08 0.10 0.13 0.14 0.18 0.18 0.16 0.18 0.20 0.24 0.26 0.29 0.30 0.30 0.36 0.44 0.51 0.59
0.26 0.19 0.15 0.13 0.09 0.07 0.06 0.06 0.06 0.06 0.06 0.06 0.05 0.05 0.05 0.04 0.04 0.05 0.08 0.12 0.12 0.09 0.07 0.08 0.07 0.07 0.07 0.10 0.13 0.15 0.21 0.25 0.23 0.23 0.23 0.25 0.28 0.29 0.29 0.32 0.39 0.51 0.59 0.64
0.28 0.23 0.17 0.12 0.09 0.07 0.05 0.05 0.04 0.03 0.03 0.03 0.04 0.04 0.05 0.06 0.06 0.08 0.10 0.14 0.14 0.14 0.11 0.09 0.08 0.07 0.07 0.07 0.09 0.14 0.20 0.28 0.31 0.30 0.25 0.23 0.27 0.30 0.31 0.34 0.40 0.45 0.53 0.57
0.20 0.17 0.15 0.13 0.12 0.10 0.07 0.06 0.05 0.04 0.04 0.04 0.04 0.05 0.05 0.07 0.09 0.13 0.18 0.17 0.15 0.15 0.11 0.11 0.10 0.07 0.06 0.07 0.10 0.15 0.16 0.20 0.24 0.25 0.25 0.24 0.27 0.32 0.34 0.34 0.33 0.36 0.44 0.50
0.14 0.11 0.11 0.10 0.10 0.10 0.09 0.07 0.05 0.04 0.04 0.04 0.04 0.04 0.06 0.10 0.14 0.17 0.22 0.24 0.20 0.16 0.15 0.13 0.09 0.07 0.08 0.10 0.13 0.15 0.15 0.15 0.16 0.18 0.19 0.20 0.22 0.26 0.27 0.27 0.27 0.28 0.36 0.48
0.13 0.11 0.09 0.09 0.08 0.08 0.07 0.07 0.07 0.08 0.07 0.08 0.08 0.08 0.10 0.15 0.21 0.27 0.29 0.27 0.25 0.21 0.17 0.13 0.11 0.10 0.10 0.12 0.13 0.13 0.15 0.17 0.17 0.14 0.14 0.18 0.20 0.21 0.21 0.21 0.23 0.26 0.31 0.40
0.11 0.08 0.08 0.07 0.08 0.07 0.07 0.08 0.11 0.12 0.13 0.14 0.13 0.11 0.11 0.17 0.26 0.35 0.36 0.33 0.27 0.22 0.19 0.16 0.13 0.12 0.11 0.12 0.13 0.14 0.15 0.18 0.20 0.18 0.17 0.18 0.19 0.19 0.18 0.20 0.24 0.28 0.32 0.33
0.09 0.07 0.07 0.08 0.08 0.08 0.09 0.11 0.13 0.16 0.19 0.20 0.20 0.17 0.20 0.27 0.34 0.38 0.36 0.34 0.29 0.23 0.17 0.12 0.11 0.12 0.13 0.13 0.14 0.14 0.14 0.16 0.20 0.29 0.43 0.49 0.34 0.20 0.19 0.20 0.23 0.29 0.34 0.33